Regional Weather Roundup
Issued by NWS

Home | Current Version | Previous Version | Text Only | Print | Product List | Glossary Off
Versions: 1 2 3 4 5 6 7 8 9 10 11 12 13 14 15 16 17 18 19 20 21 22 23 24 25 26 27 28 29 30 31 32 33 34 35 36 37 38 39 40 41 42 43 44 45 46 47 48 49 50

000
ASUS43 KLOT 170703
RWRIL

ILLINOIS REGIONAL WEATHER ROUNDUP
NATIONAL WEATHER SERVICE CHICAGO/ROMEOVILLE IL
100 AM CST WED JAN 17 2018

NOTE: "FAIR" INDICATES FEW OR NO CLOUDS BELOW 12,000 FEET WITH NO
SIGNIFICANT WEATHER AND/OR OBSTRUCTIONS TO VISIBILITY.

* THESE STATIONS ARE NOT UNDER NWS QUALITY CONTROL. THEY ALSO MAY NOT
  REPORT WEATHER SUCH AS PRECIPITATION OR FOG.

ILZ001-002-007-009-015-016-024-170800-
NORTHWEST ILLINOIS

CITY           SKY/WX    TMP DP  RH WIND       PRES   REMARKS
MOLINE         FAIR       2  -2  83 W8        30.61F WCI -12
STERLING*      FAIR       0  -3  87 W8        30.59S WCI -14
SAVANNA*       FAIR       3  -2  81 W5        30.59S WCI  -7
$$

ILZ003-004-008-010-011-017-018-170800-
NORTH CENTRAL ILLINOIS

CITY           SKY/WX    TMP DP  RH WIND       PRES   REMARKS
ROCKFORD       FAIR       4   0  83 CALM      30.56S
FREEPORT*      FAIR       3   0  87 W8        30.56S WCI -10
ROCHELLE*      FAIR      -3  -6  87 W7        30.56S WCI -17
DE KALB*       FAIR       6   2  87 W10       30.53S WCI  -9
PERU*          FAIR       2  -2  83 W8        30.58S WCI -12
$$

ILZ005-006-012>014-019>023-170800-
NORTHEAST ILLINOIS

CITY           SKY/WX    TMP DP  RH WIND       PRES   REMARKS
CHICAGO-OHARE  FAIR      12   7  80 W8        30.51S WCI   0
CHICAGO-MIDWAY FAIR      13   8  81 W7        30.52S WCI   3
AURORA         FAIR       2  -2  83 W9        30.54S WCI -13
LANSING*       FAIR       9   7  92 W5        30.52S WCI   1
JOLIET*        FAIR       7   4  87 CALM      30.55S
WAUKEGAN       FAIR      11   6  81 W6        30.50S WCI   1
DUPAGE AIRPORT FAIR       6   3  87 NW5       30.51F WCI  -3
KANKAKEE*      FAIR       4   0  83 W10       30.55S WCI -12
WHEELING       FAIR      11   7  84 NW7       30.53S WCI   0
MORRIS*        FAIR       4   0  83 W7        30.55S WCI  -9
ROMEOVILLE*    FAIR       5   2  88 NW9       30.54S WCI  -9
NORTHERLY ISL    N/A     16   9  74 W12         N/A  WCI   3
$$

LMZ740>746-170800-
SOUTHERN LAKE MICHIGAN

STATION/POSITION SKY/WX   TEMP    WIND        PRES    VSBY  WAVE
                          AIR SEA DIR/SP/G                  HT/PER
                          (F)     (DEG/KT/KT) (MB)    (MI)  (FT/S)
HARRISON CRIB              19     300/ 15/ 18   N/A
BURNHAM HARBOR             16     260/ 12/ 14   N/A
CALUMET HARBOR             15     260/  6/ 10 1032.2F
BURNS HARBOR               22     310/ 15/ 19 1032.5F
MICHIGAN CITY              23     340/  7/ 13   N/A
$$

ILZ025>027-034>036-040-047-049-050-058-095>099-170800-
WEST-CENTRAL ILLINOIS

CITY           SKY/WX    TMP DP  RH WIND       PRES   REMARKS
QUINCY         CLOUDY     1  -3  83 W6        30.65S WCI -10
MACOMB*        CLOUDY     0  -3  87 W8        30.66S WCI -14
JACKSONVILLE*  CLEAR     -1  -5  82 W6        30.65S WCI -13
PITTSFIELD*    CLEAR      3  -2  79 W6        30.66F WCI  -8
$$

ILZ028>032-037-038-041>044-048-051>054-059>061-170800-
CENTRAL ILLINOIS

CITY           SKY/WX    TMP DP  RH WIND       PRES   REMARKS
PONTIAC        FAIR       3   1  93 W10       30.58S WCI -13
BLOOMINGTON    FAIR       2  -1  88 W12       30.57S WCI -15
DECATUR        FAIR       5   2  87 W12       30.61S WCI -11
PEORIA         FAIR       2  -2  83 W3        30.61F
LACON*         FAIR      -1  -3  87 CALM      30.60S
LINCOLN*       FAIR       4   1  83 W7        30.62S WCI  -8
SPRINGFIELD    FAIR       1  -4  79 W7        30.65R WCI -12
TAYLORVILLE    FAIR       3  -2  80 W7        30.64R WCI  -9
$$

ILZ033-039-045-046-055>057-062-063-170800-
EAST-CENTRAL ILLINOIS

CITY           SKY/WX    TMP DP  RH WIND       PRES   REMARKS
CHAMPAIGN      FAIR      -1  -4  87 W9        30.58S WCI -16
DANVILLE*      FAIR       1  -3  85 W6        30.53S WCI -11
RANTOUL*       FAIR       4   1  85 W10       30.56S WCI -11
MATTOON        FAIR       3  -1  83 W9        30.58F WCI -12
PARIS*         FAIR       2  -1  87 W10       30.59F WCI -14
$$

ILZ079-100>102-170800-
SOUTHWEST ILLINOIS

CITY           SKY/WX    TMP DP  RH WIND       PRES   REMARKS
ALTON          CLEAR      6   3  87 W8        30.67F WCI  -7
BELLEVILLE     FAIR      10   1  69 W5        30.66F WCI   1
CAHOKIA*       CLOUDY    11   2  67 NW9       30.69F WCI  -2
SPARTA*        CLOUDY    10   6  81 NW6       30.68F WCI   1
$$

ILZ064>066-069>071-074>076-080>082-084>086-088>090-092>094-170800-
SOUTH-CENTRAL ILLINOIS

CITY           SKY/WX    TMP DP  RH WIND       PRES   REMARKS
CARBONDALE     CLOUDY    10   5  80 NW8       30.69F WCI  -2
CAIRO*         CLOUDY    10   4  76 N10       30.69S WCI  -4
EFFINGHAM*     FAIR       6   2  84 W8        30.64F WCI  -7
MARION         FLURRIES   9   3  77 NW5       30.69S WCI   1
MT. VERNON     FLURRIES  10   4  76 VRB3      30.67F
CENTRALIA*     CLOUDY    10   5  79 NW7       30.66S WCI  -1
SALEM*         CLOUDY    10   4  74 W7        30.66S WCI   0
METROPOLIS*    FLURRIES  10   5  79 NW6       30.68S WCI   1
$$

ILZ067-068-072-073-078-083-087-091-170800-
SOUTHEAST ILLINOIS

CITY           SKY/WX    TMP DP  RH WIND       PRES   REMARKS
LAWRENCEVILLE  FLURRIES  10   5  80 W9        30.64F WCI  -3
FLORA*         FLURRIES  10   4  76 W7        30.66S WCI  -1
FAIRFIELD*     FLURRIES  10   5  80 CALM      30.65F
HARRISBURG*    CLOUDY    10   4  80 NW9       30.68F WCI  -4
ROBINSON*      CLOUDY     8   4  84 W7        30.64F WCI  -4
CARMI*         CLOUDY    10   6  82 NW12      30.66S WCI  -5
$$

ABBREVIATIONS USED IN REMARKS
   TC - TEMPERATURE IN CELSIUS
  WCI - WIND CHILL INDEX
   HX - HEAT INDEX
  VSB - VISIBILITY
$$




USA.gov is the U.S. government's official web portal to all federal, state and local government web resources and services.